Time,TemperatureF,DewpointF,PressureIn,WindDirection,WindDirectionDegrees,WindSpeedMPH,WindSpeedGustMPH,Humidity,HourlyPrecipIn,Conditions,Clouds,dailyrainin,SoftwareType,DateUTC
2013-07-09 00:00:00,73.9,61.9,30.14,North,4,0.0,0.0,66,0.00,,---,0.00,VWS V13.01,2013-07-09 04:00:00,
2013-07-09 00:01:00,73.9,61.9,30.14,North,4,0.0,0.0,66,0.00,,---,0.00,VWS V13.01,2013-07-09 04:01:00,
2013-07-09 00:02:00,73.8,61.7,30.14,North,4,0.0,0.0,66,0.00,,---,0.00,VWS V13.01,2013-07-09 04:02:00,
2013-07-09 00:07:00,73.8,61.7,30.14,North,4,0.0,0.0,66,0.00,,---,0.00,VWS V13.01,2013-07-09 04:07:00,
2013-07-09 00:12:00,73.6,61.5,30.14,East,85,0.0,0.0,66,0.00,,---,0.00,VWS V13.01,2013-07-09 04:12:00,
2013-07-09 00:17:00,73.6,61.5,30.14,East,85,0.0,0.0,66,0.00,,---,0.00,VWS V13.01,2013-07-09 04:17:00,
2013-07-09 00:22:00,73.6,62.0,30.14,East,85,0.0,0.0,67,0.00,,---,0.00,VWS V13.01,2013-07-09 04:22:00,
2013-07-09 00:27:00,73.6,61.5,30.14,East,85,0.0,0.0,66,0.00,,---,0.00,VWS V13.01,2013-07-09 04:27:00,
2013-07-09 00:32:00,73.6,62.0,30.14,East,85,0.0,0.0,67,0.00,,---,0.00,VWS V13.01,2013-07-09 04:32:00,
2013-07-09 00:37:00,73.6,62.0,30.14,East,85,0.0,0.0,67,0.00,,---,0.00,VWS V13.01,2013-07-09 04:37:00,
2013-07-09 00:42:00,73.6,62.0,30.14,East,85,0.0,0.0,67,0.00,,---,0.00,VWS V13.01,2013-07-09 04:42:00,
2013-07-09 00:47:00,73.6,62.0,30.14,East,85,0.0,0.0,67,0.00,,---,0.00,VWS V13.01,2013-07-09 04:47:00,
2013-07-09 00:52:00,73.6,61.5,30.14,East,85,0.0,0.0,66,0.00,,---,0.00,VWS V13.01,2013-07-09 04:52:00,
2013-07-09 00:57:00,73.4,61.4,30.14,East,85,0.0,0.0,66,0.00,,---,0.00,VWS V13.01,2013-07-09 04:57:00,
2013-07-09 01:02:00,73.2,61.6,30.14,ENE,57,0.0,0.0,67,0.00,,---,0.00,VWS V13.01,2013-07-09 05:02:00,
2013-07-09 01:07:00,73.2,61.6,30.14,ENE,57,0.0,0.0,67,0.00,,---,0.00,VWS V13.01,2013-07-09 05:07:00,
2013-07-09 01:12:00,73.2,61.6,30.14,ENE,57,0.0,0.0,67,0.00,,---,0.00,VWS V13.01,2013-07-09 05:12:00,
2013-07-09 01:17:00,73.2,61.6,30.14,ENE,57,0.0,0.0,67,0.00,,---,0.00,VWS V13.01,2013-07-09 05:17:00,
2013-07-09 01:22:00,73.2,61.2,30.11,ENE,57,0.0,0.0,66,0.00,,---,0.00,VWS V13.01,2013-07-09 05:22:00,
2013-07-09 01:27:00,73.0,61.0,30.11,ENE,57,0.0,0.0,66,0.00,,---,0.00,VWS V13.01,2013-07-09 05:27:00,
2013-07-09 01:32:00,73.0,61.0,30.11,ENE,57,0.0,0.0,66,0.00,,---,0.00,VWS V13.01,2013-07-09 05:32:00,
2013-07-09 01:37:00,73.0,61.0,30.11,ENE,57,0.0,0.0,66,0.00,,---,0.00,VWS V13.01,2013-07-09 05:37:00,
2013-07-09 01:42:00,72.9,61.3,30.11,ENE,57,0.0,0.0,67,0.00,,---,0.00,VWS V13.01,2013-07-09 05:42:00,
2013-07-09 01:47:00,72.7,61.1,30.11,ENE,57,0.0,0.0,67,0.00,,---,0.00,VWS V13.01,2013-07-09 05:47:00,
2013-07-09 01:52:00,72.7,61.1,30.11,ENE,57,0.0,0.0,67,0.00,,---,0.00,VWS V13.01,2013-07-09 05:52:00,
2013-07-09 01:57:00,72.5,60.9,30.11,ENE,57,0.0,0.0,67,0.00,,---,0.00,VWS V13.01,2013-07-09 05:57:00,
2013-07-09 02:02:00,72.5,61.3,30.11,ENE,57,0.0,0.0,68,0.00,,---,0.00,VWS V13.01,2013-07-09 06:02:00,
2013-07-09 02:07:00,72.5,61.3,30.11,ENE,57,0.0,0.0,68,0.00,,---,0.00,VWS V13.01,2013-07-09 06:07:00,
2013-07-09 02:12:00,72.5,61.8,30.11,ENE,57,0.0,0.0,69,0.00,,---,0.00,VWS V13.01,2013-07-09 06:12:00,
2013-07-09 02:17:00,72.3,61.6,30.11,ENE,57,0.0,0.0,69,0.00,,---,0.00,VWS V13.01,2013-07-09 06:17:00,
2013-07-09 02:22:00,72.3,61.6,30.11,ENE,57,0.0,0.0,69,0.00,,---,0.00,VWS V13.01,2013-07-09 06:22:00,
2013-07-09 02:27:00,72.3,61.6,30.11,ENE,57,0.0,0.0,69,0.00,,---,0.00,VWS V13.01,2013-07-09 06:27:00,
2013-07-09 02:32:00,72.3,61.6,30.11,ENE,57,0.0,0.0,69,0.00,,---,0.00,VWS V13.01,2013-07-09 06:32:00,
2013-07-09 02:37:00,72.5,61.8,30.11,ENE,57,0.0,0.0,69,0.00,,---,0.00,VWS V13.01,2013-07-09 06:37:00,
2013-07-09 02:42:00,72.5,62.2,30.11,ENE,57,0.0,0.0,70,0.00,,---,0.00,VWS V13.01,2013-07-09 06:42:00,
2013-07-09 02:47:00,72.3,62.0,30.11,ENE,57,0.0,0.0,70,0.00,,---,0.00,VWS V13.01,2013-07-09 06:47:00,
2013-07-09 02:52:00,72.1,61.8,30.11,ENE,57,0.0,0.0,70,0.00,,---,0.00,VWS V13.01,2013-07-09 06:52:00,
2013-07-09 02:57:00,72.0,61.7,30.11,ENE,57,0.0,0.0,70,0.00,,---,0.00,VWS V13.01,2013-07-09 06:57:00,
2013-07-09 03:02:00,72.0,61.7,30.11,ENE,57,0.0,0.0,70,0.00,,---,0.00,VWS V13.01,2013-07-09 07:02:00,
2013-07-09 03:07:00,72.0,62.0,30.11,ENE,57,0.0,0.0,71,0.00,,---,0.00,VWS V13.01,2013-07-09 07:07:00,
2013-07-09 03:12:00,72.0,62.0,30.11,ENE,57,0.0,0.0,71,0.00,,---,0.00,VWS V13.01,2013-07-09 07:12:00,
2013-07-09 03:17:00,71.8,61.9,30.11,ENE,57,0.0,0.0,71,0.00,,---,0.00,VWS V13.01,2013-07-09 07:17:00,
2013-07-09 03:22:00,71.8,61.9,30.11,ENE,57,0.0,0.0,71,0.00,,---,0.00,VWS V13.01,2013-07-09 07:22:00,
2013-07-09 03:27:00,71.8,61.9,30.11,ENE,57,0.0,0.0,71,0.00,,---,0.00,VWS V13.01,2013-07-09 07:27:00,
2013-07-09 03:32:00,71.8,61.9,30.11,ENE,57,0.0,0.0,71,0.00,,---,0.00,VWS V13.01,2013-07-09 07:32:00,
2013-07-09 03:37:00,72.0,62.0,30.11,ENE,57,0.0,0.0,71,0.00,,---,0.00,VWS V13.01,2013-07-09 07:37:00,
2013-07-09 03:42:00,71.8,61.9,30.11,ENE,57,0.0,0.0,71,0.00,,---,0.00,VWS V13.01,2013-07-09 07:42:00,
2013-07-09 03:47:00,71.8,61.9,30.11,ENE,57,0.0,0.0,71,0.00,,---,0.00,VWS V13.01,2013-07-09 07:47:00,
2013-07-09 03:52:00,71.8,61.9,30.11,ENE,57,0.0,0.0,71,0.00,,---,0.00,VWS V13.01,2013-07-09 07:52:00,
2013-07-09 03:57:00,71.8,61.9,30.11,North,0,0.0,0.0,71,0.00,,---,0.00,VWS V13.01,2013-07-09 07:57:00,
2013-07-09 04:02:00,71.8,61.9,30.11,North,0,0.0,0.0,71,0.00,,---,0.00,VWS V13.01,2013-07-09 08:02:00,
2013-07-09 04:07:00,71.8,61.9,30.11,North,0,0.0,0.0,71,0.00,,---,0.00,VWS V13.01,2013-07-09 08:07:00,
2013-07-09 04:12:00,71.8,61.9,30.11,North,0,0.0,0.0,71,0.00,,---,0.00,VWS V13.01,2013-07-09 08:12:00,
2013-07-09 04:17:00,71.6,61.7,30.11,North,0,0.0,0.0,71,0.00,,---,0.00,VWS V13.01,2013-07-09 08:17:00,
2013-07-09 04:22:00,71.6,61.7,30.11,North,0,0.0,0.0,71,0.00,,---,0.00,VWS V13.01,2013-07-09 08:22:00,
2013-07-09 04:27:00,71.6,62.1,30.11,North,0,0.0,0.0,72,0.00,,---,0.00,VWS V13.01,2013-07-09 08:27:00,
2013-07-09 04:32:00,71.6,62.1,30.11,North,0,0.0,0.0,72,0.00,,---,0.00,VWS V13.01,2013-07-09 08:32:00,
2013-07-09 04:37:00,71.6,62.1,30.11,North,0,0.0,0.0,72,0.00,,---,0.00,VWS V13.01,2013-07-09 08:37:00,
2013-07-09 04:42:00,71.6,62.1,30.11,North,0,0.0,0.0,72,0.00,,---,0.00,VWS V13.01,2013-07-09 08:42:00,
2013-07-09 04:47:00,71.6,62.1,30.11,North,0,0.0,0.0,72,0.00,,---,0.00,VWS V13.01,2013-07-09 08:47:00,
2013-07-09 04:52:00,71.6,62.1,30.11,North,0,0.0,0.0,72,0.00,,---,0.00,VWS V13.01,2013-07-09 08:52:00,
2013-07-09 04:57:00,71.6,62.5,30.11,North,0,0.0,0.0,73,0.00,,---,0.00,VWS V13.01,2013-07-09 08:57:00,
2013-07-09 05:02:00,71.6,62.5,30.11,North,0,0.0,0.0,73,0.00,,---,0.00,VWS V13.01,2013-07-09 09:02:00,
2013-07-09 05:07:00,71.6,62.5,30.11,North,0,0.0,0.0,73,0.00,,---,0.00,VWS V13.01,2013-07-09 09:07:00,
2013-07-09 05:12:00,71.6,62.5,30.11,North,0,0.0,0.0,73,0.00,,---,0.00,VWS V13.01,2013-07-09 09:12:00,
2013-07-09 05:18:00,71.6,62.5,30.11,North,0,0.0,0.0,73,0.00,,---,0.00,VWS V13.01,2013-07-09 09:18:00,
2013-07-09 05:22:00,71.6,62.5,30.11,North,0,0.0,0.0,73,0.00,,---,0.00,VWS V13.01,2013-07-09 09:22:00,
2013-07-09 05:28:00,71.6,62.5,30.11,North,0,0.0,0.0,73,0.00,,---,0.00,VWS V13.01,2013-07-09 09:28:00,
2013-07-09 05:33:00,71.6,62.5,30.11,North,0,0.0,0.0,73,0.00,,---,0.00,VWS V13.01,2013-07-09 09:33:00,
2013-07-09 05:38:00,71.6,62.5,30.11,North,0,0.0,0.0,73,0.00,,---,0.00,VWS V13.01,2013-07-09 09:38:00,
2013-07-09 05:43:00,71.4,62.7,30.11,North,0,0.0,0.0,74,0.00,,---,0.00,VWS V13.01,2013-07-09 09:43:00,
2013-07-09 05:48:00,71.4,62.7,30.11,North,0,0.0,0.0,74,0.00,,---,0.00,VWS V13.01,2013-07-09 09:48:00,
2013-07-09 05:52:00,71.2,62.5,30.11,North,0,0.0,0.0,74,0.00,,---,0.00,VWS V13.01,2013-07-09 09:52:00,
2013-07-09 05:57:00,71.2,62.9,30.11,North,357,0.0,0.0,75,0.00,,---,0.00,VWS V13.01,2013-07-09 09:57:00,
2013-07-09 06:02:00,71.2,62.9,30.11,North,0,0.0,0.0,75,0.00,,---,0.00,VWS V13.01,2013-07-09 10:02:00,
2013-07-09 06:08:00,71.2,62.9,30.11,North,357,0.0,0.0,75,0.00,,---,0.00,VWS V13.01,2013-07-09 10:08:00,
2013-07-09 06:13:00,71.2,62.9,30.11,North,357,0.0,0.0,75,0.00,,---,0.00,VWS V13.01,2013-07-09 10:13:00,
2013-07-09 06:18:00,71.2,62.9,30.11,North,0,0.0,0.0,75,0.00,,---,0.00,VWS V13.01,2013-07-09 10:18:00,
2013-07-09 06:23:00,71.2,62.9,30.11,North,0,0.0,0.0,75,0.00,,---,0.00,VWS V13.01,2013-07-09 10:23:00,
2013-07-09 06:28:00,71.4,63.1,30.11,North,0,0.0,0.0,75,0.00,,---,0.00,VWS V13.01,2013-07-09 10:28:00,
2013-07-09 06:33:00,71.4,63.1,30.11,North,357,0.0,0.0,75,0.00,,---,0.00,VWS V13.01,2013-07-09 10:33:00,
2013-07-09 06:38:00,71.6,63.3,30.11,North,357,0.0,0.0,75,0.00,,---,0.00,VWS V13.01,2013-07-09 10:38:00,
2013-07-09 06:43:00,71.4,63.1,30.11,North,357,0.0,0.0,75,0.00,,---,0.00,VWS V13.01,2013-07-09 10:43:00,
2013-07-09 06:48:00,71.4,63.1,30.11,North,357,0.0,0.0,75,0.00,,---,0.00,VWS V13.01,2013-07-09 10:48:00,
2013-07-09 06:53:00,71.6,63.3,30.11,North,357,0.0,0.0,75,0.00,,---,0.00,VWS V13.01,2013-07-09 10:53:00,
2013-07-09 06:58:00,71.6,63.3,30.11,North,357,0.0,0.0,75,0.00,,---,0.00,VWS V13.01,2013-07-09 10:58:00,
2013-07-09 07:03:00,71.6,63.3,30.11,North,357,0.0,0.0,75,0.00,,---,0.00,VWS V13.01,2013-07-09 11:03:00,
2013-07-09 07:08:00,71.6,63.3,30.11,North,357,0.0,0.0,75,0.00,,---,0.00,VWS V13.01,2013-07-09 11:08:00,
2013-07-09 07:13:00,71.8,63.4,30.11,North,357,0.0,0.0,75,0.00,,---,0.00,VWS V13.01,2013-07-09 11:13:00,
2013-07-09 07:18:00,71.8,63.8,30.11,North,357,0.0,0.0,76,0.00,,---,0.00,VWS V13.01,2013-07-09 11:18:00,
2013-07-09 07:23:00,71.8,63.8,30.11,North,357,0.0,0.0,76,0.00,,---,0.00,VWS V13.01,2013-07-09 11:23:00,
2013-07-09 07:28:00,72.0,64.0,30.11,North,357,0.0,0.0,76,0.00,,---,0.00,VWS V13.01,2013-07-09 11:28:00,
2013-07-09 07:33:00,72.0,64.0,30.11,North,357,0.0,0.0,76,0.00,,---,0.00,VWS V13.01,2013-07-09 11:33:00,
2013-07-09 07:38:00,72.1,64.2,30.11,North,0,0.0,0.0,76,0.00,,---,0.00,VWS V13.01,2013-07-09 11:38:00,
2013-07-09 07:43:00,72.1,64.2,30.11,North,0,0.0,0.0,76,0.00,,---,0.00,VWS V13.01,2013-07-09 11:43:00,
2013-07-09 07:48:00,72.3,64.7,30.11,North,0,0.0,0.0,77,0.00,,---,0.00,VWS V13.01,2013-07-09 11:48:00,
2013-07-09 07:53:00,72.5,64.9,30.11,North,0,0.0,0.0,77,0.00,,---,0.00,VWS V13.01,2013-07-09 11:53:00,
2013-07-09 07:58:00,72.7,65.1,30.11,North,0,0.0,0.0,77,0.00,,---,0.00,VWS V13.01,2013-07-09 11:58:00,
2013-07-09 08:03:00,72.9,65.2,30.11,North,0,0.0,0.0,77,0.00,,---,0.00,VWS V13.01,2013-07-09 12:03:00,
2013-07-09 08:08:00,73.0,65.4,30.11,NNE,19,0.0,0.0,77,0.00,,---,0.00,VWS V13.01,2013-07-09 12:08:00,
2013-07-09 08:13:00,73.2,65.6,30.11,NNE,19,0.0,0.0,77,0.00,,---,0.00,VWS V13.01,2013-07-09 12:13:00,
2013-07-09 08:18:00,73.4,65.4,30.11,NNE,29,0.0,0.0,76,0.00,,---,0.00,VWS V13.01,2013-07-09 12:18:00,
2013-07-09 08:23:00,73.4,65.4,30.11,NNE,29,0.0,0.0,76,0.00,,---,0.00,VWS V13.01,2013-07-09 12:23:00,
2013-07-09 08:28:00,73.6,65.6,30.11,NNE,29,0.0,0.0,76,0.00,,---,0.00,VWS V13.01,2013-07-09 12:28:00,
2013-07-09 08:33:00,73.6,65.6,30.11,NNE,29,0.0,0.0,76,0.00,,---,0.00,VWS V13.01,2013-07-09 12:33:00,
2013-07-09 08:38:00,73.6,65.6,30.11,North,357,2.2,2.2,76,0.00,,---,0.00,VWS V13.01,2013-07-09 12:38:00,
2013-07-09 08:43:00,73.9,66.3,30.11,North,0,0.0,0.0,77,0.00,,---,0.00,VWS V13.01,2013-07-09 12:43:00,
2013-07-09 08:48:00,74.1,66.5,30.11,North,0,0.0,0.0,77,0.00,,---,0.00,VWS V13.01,2013-07-09 12:48:00,
2013-07-09 08:53:00,74.3,66.6,30.11,SSW,200,0.0,0.0,77,0.00,,---,0.00,VWS V13.01,2013-07-09 12:53:00,
2013-07-09 08:58:00,74.3,66.6,30.11,SSW,197,0.0,0.0,77,0.00,,---,0.00,VWS V13.01,2013-07-09 12:58:00,
2013-07-09 09:03:00,74.7,67.0,30.11,East,95,0.0,0.0,77,0.00,,---,0.00,VWS V13.01,2013-07-09 13:03:00,
2013-07-09 09:08:00,75.0,67.3,30.11,East,93,0.0,0.0,77,0.00,,---,0.00,VWS V13.01,2013-07-09 13:08:00,
2013-07-09 09:13:00,75.6,67.5,30.11,East,101,0.0,0.0,76,0.00,,---,0.00,VWS V13.01,2013-07-09 13:13:00,
2013-07-09 09:18:00,75.7,67.3,30.11,SE,138,0.0,0.0,75,0.00,,---,0.00,VWS V13.01,2013-07-09 13:18:00,
2013-07-09 09:23:00,75.9,67.4,30.14,East,95,0.0,0.0,75,0.00,,---,0.00,VWS V13.01,2013-07-09 13:23:00,
2013-07-09 09:28:00,75.9,67.4,30.14,WSW,241,0.0,0.0,75,0.00,,---,0.00,VWS V13.01,2013-07-09 13:28:00,
2013-07-09 09:33:00,76.1,67.2,30.14,South,175,0.0,0.0,74,0.00,,---,0.00,VWS V13.01,2013-07-09 13:33:00,
2013-07-09 09:38:00,76.5,67.2,30.14,ESE,121,0.0,0.0,73,0.00,,---,0.00,VWS V13.01,2013-07-09 13:38:00,
2013-07-09 09:43:00,76.6,67.3,30.14,North,0,0.0,0.0,73,0.00,,---,0.00,VWS V13.01,2013-07-09 13:43:00,
2013-07-09 09:48:00,76.8,67.5,30.14,NNW,341,0.0,0.0,73,0.00,,---,0.00,VWS V13.01,2013-07-09 13:48:00,
2013-07-09 09:53:00,77.2,67.5,30.14,North,2,0.0,0.0,72,0.00,,---,0.00,VWS V13.01,2013-07-09 13:53:00,
2013-07-09 09:58:00,77.4,67.6,30.14,ESE,104,0.0,0.0,72,0.00,,---,0.00,VWS V13.01,2013-07-09 13:58:00,
2013-07-09 10:03:00,77.7,67.6,30.14,ESE,104,0.0,0.0,71,0.00,,---,0.00,VWS V13.01,2013-07-09 14:03:00,
2013-07-09 10:08:00,78.1,67.1,30.14,ESE,123,0.0,0.0,69,0.00,,---,0.00,VWS V13.01,2013-07-09 14:08:00,
2013-07-09 10:13:00,78.3,67.3,30.14,ESE,122,0.0,0.0,69,0.00,,---,0.00,VWS V13.01,2013-07-09 14:13:00,
2013-07-09 10:18:00,78.6,66.8,30.14,North,357,0.0,0.0,67,0.00,,---,0.00,VWS V13.01,2013-07-09 14:18:00,
2013-07-09 10:23:00,79.0,66.7,30.14,North,357,0.0,0.0,66,0.00,,---,0.00,VWS V13.01,2013-07-09 14:23:00,
2013-07-09 10:28:00,79.2,66.4,30.14,North,357,0.0,0.0,65,0.00,,---,0.00,VWS V13.01,2013-07-09 14:28:00,
2013-07-09 10:33:00,79.3,66.1,30.14,North,4,0.0,0.0,64,0.00,,---,0.00,VWS V13.01,2013-07-09 14:33:00,
2013-07-09 10:38:00,79.5,65.4,30.14,SE,134,0.0,0.0,62,0.00,,---,0.00,VWS V13.01,2013-07-09 14:38:00,
2013-07-09 10:43:00,79.5,65.4,30.14,SE,134,0.0,0.0,62,0.00,,---,0.00,VWS V13.01,2013-07-09 14:43:00,
2013-07-09 10:48:00,79.9,65.2,30.14,East,87,0.0,0.0,61,0.00,,---,0.00,VWS V13.01,2013-07-09 14:48:00,
2013-07-09 10:53:00,80.2,65.1,30.14,East,87,0.0,0.0,60,0.00,,---,0.00,VWS V13.01,2013-07-09 14:53:00,
2013-07-09 10:58:00,80.2,65.1,30.14,ESE,102,0.0,0.0,60,0.00,,---,0.00,VWS V13.01,2013-07-09 14:58:00,
2013-07-09 11:03:00,80.4,64.8,30.14,ESE,102,0.0,0.0,59,0.00,,---,0.00,VWS V13.01,2013-07-09 15:03:00,
2013-07-09 11:08:00,80.6,64.5,30.14,ESE,102,0.0,0.0,58,0.00,,---,0.00,VWS V13.01,2013-07-09 15:08:00,
2013-07-09 11:13:00,80.6,64.0,30.14,ESE,102,0.0,0.0,57,0.00,,---,0.00,VWS V13.01,2013-07-09 15:13:00,
2013-07-09 11:18:00,80.6,64.0,30.14,North,357,0.0,0.0,57,0.00,,---,0.00,VWS V13.01,2013-07-09 15:18:00,
2013-07-09 11:23:00,80.6,64.5,30.14,North,357,0.0,0.0,58,0.00,,---,0.00,VWS V13.01,2013-07-09 15:23:00,
2013-07-09 11:28:00,81.0,65.3,30.14,NNW,348,3.1,3.1,59,0.00,,---,0.00,VWS V13.01,2013-07-09 15:28:00,
2013-07-09 11:33:00,81.1,65.0,30.14,NNW,348,0.0,0.0,58,0.00,,---,0.00,VWS V13.01,2013-07-09 15:33:00,
2013-07-09 11:38:00,82.0,65.8,30.14,NNW,327,0.0,0.0,58,0.00,,---,0.00,VWS V13.01,2013-07-09 15:38:00,
2013-07-09 11:43:00,82.4,64.1,30.14,North,353,0.0,0.0,54,0.00,,---,0.00,VWS V13.01,2013-07-09 15:43:00,
2013-07-09 11:48:00,82.4,63.6,30.14,North,0,2.2,2.2,53,0.00,,---,0.00,VWS V13.01,2013-07-09 15:48:00,
2013-07-09 11:53:00,83.3,64.9,30.14,North,357,0.0,0.0,54,0.00,,---,0.00,VWS V13.01,2013-07-09 15:53:00,
2013-07-09 11:58:00,84.9,64.8,30.14,North,10,2.7,2.7,51,0.00,,---,0.00,VWS V13.01,2013-07-09 15:58:00,
2013-07-09 12:03:00,84.9,62.5,30.14,North,2,0.0,0.0,47,0.00,,---,0.00,VWS V13.01,2013-07-09 16:03:00,
2013-07-09 12:08:00,84.4,61.4,30.11,North,4,0.0,0.0,46,0.00,,---,0.00,VWS V13.01,2013-07-09 16:08:00,
2013-07-09 12:13:00,83.8,61.5,30.11,ESE,107,0.0,0.0,47,0.00,,---,0.00,VWS V13.01,2013-07-09 16:13:00,
2013-07-09 12:18:00,84.0,62.2,30.11,NNE,25,0.0,0.0,48,0.00,,---,0.00,VWS V13.01,2013-07-09 16:18:00,
2013-07-09 12:23:00,84.2,61.8,30.14,West,280,0.0,0.0,47,0.00,,---,0.00,VWS V13.01,2013-07-09 16:23:00,
2013-07-09 12:28:00,84.7,62.3,30.14,North,357,0.0,0.0,47,0.00,,---,0.00,VWS V13.01,2013-07-09 16:28:00,
2013-07-09 12:33:00,85.6,63.7,30.14,North,0,2.2,2.2,48,0.00,,---,0.00,VWS V13.01,2013-07-09 16:33:00,
2013-07-09 12:38:00,87.3,62.7,30.14,North,3,2.7,2.7,44,0.00,,---,0.00,VWS V13.01,2013-07-09 16:38:00,
2013-07-09 12:43:00,88.3,59.5,30.14,North,2,0.0,2.7,38,0.00,,---,0.00,VWS V13.01,2013-07-09 16:43:00,
2013-07-09 12:48:00,89.1,57.1,30.14,WNW,303,3.1,3.1,34,0.00,,---,0.00,VWS V13.01,2013-07-09 16:48:00,
2013-07-09 12:53:00,89.6,58.3,30.14,NW,319,3.6,3.6,35,0.00,,---,0.00,VWS V13.01,2013-07-09 16:53:00,
2013-07-09 12:58:00,89.2,59.6,30.14,NNE,22,0.0,0.0,37,0.00,,---,0.00,VWS V13.01,2013-07-09 16:58:00,
2013-07-09 13:03:00,88.9,58.5,30.14,NNW,345,0.0,0.0,36,0.00,,---,0.00,VWS V13.01,2013-07-09 17:03:00,
2013-07-09 13:08:00,89.2,60.3,30.14,ENE,62,0.0,0.0,38,0.00,,---,0.00,VWS V13.01,2013-07-09 17:08:00,
2013-07-09 13:13:00,89.8,60.8,30.14,North,357,0.0,0.0,38,0.00,,---,0.00,VWS V13.01,2013-07-09 17:13:00,
2013-07-09 13:18:00,90.9,59.5,30.14,North,4,0.0,0.0,35,0.00,,---,0.00,VWS V13.01,2013-07-09 17:18:00,
2013-07-09 13:23:00,90.7,55.9,30.11,North,0,0.0,0.0,31,0.00,,---,0.00,VWS V13.01,2013-07-09 17:23:00,
2013-07-09 13:28:00,89.2,57.2,30.11,NNE,20,0.0,0.0,34,0.00,,---,0.00,VWS V13.01,2013-07-09 17:28:00,
2013-07-09 13:33:00,89.1,57.9,30.11,NNE,19,0.0,0.0,35,0.00,,---,0.00,VWS V13.01,2013-07-09 17:33:00,
2013-07-09 13:38:00,88.3,56.4,30.11,NNE,19,0.0,0.0,34,0.00,,---,0.00,VWS V13.01,2013-07-09 17:38:00,
2013-07-09 13:43:00,86.9,56.0,30.11,NNE,15,0.0,0.0,35,0.00,,---,0.00,VWS V13.01,2013-07-09 17:43:00,
2013-07-09 13:48:00,86.5,55.7,30.11,NNE,15,0.0,0.0,35,0.00,,---,0.00,VWS V13.01,2013-07-09 17:48:00,
2013-07-09 13:53:00,88.2,60.8,30.11,NNE,14,0.0,0.0,40,0.00,,---,0.00,VWS V13.01,2013-07-09 17:53:00,
2013-07-09 13:58:00,89.2,60.3,30.11,North,357,0.0,0.0,38,0.00,,---,0.00,VWS V13.01,2013-07-09 17:58:00,
2013-07-09 14:03:00,90.9,59.5,30.11,North,8,0.0,0.0,35,0.00,,---,0.00,VWS V13.01,2013-07-09 18:03:00,
2013-07-09 14:08:00,91.2,59.8,30.11,NW,319,2.7,2.7,35,0.00,,---,0.00,VWS V13.01,2013-07-09 18:08:00,
2013-07-09 14:13:00,92.3,57.3,30.11,North,357,0.0,2.2,31,0.00,,---,0.00,VWS V13.01,2013-07-09 18:13:00,
2013-07-09 14:18:00,92.8,56.9,30.11,North,353,4.0,4.0,30,0.00,,---,0.00,VWS V13.01,2013-07-09 18:18:00,
2013-07-09 14:23:00,92.7,55.8,30.11,NNE,27,0.0,0.0,29,0.00,,---,0.00,VWS V13.01,2013-07-09 18:23:00,
2013-07-09 14:28:00,92.3,55.5,30.11,NNW,348,0.0,0.0,29,0.00,,---,0.00,VWS V13.01,2013-07-09 18:28:00,
2013-07-09 14:33:00,92.8,55.9,30.11,NNW,338,0.0,0.0,29,0.00,,---,0.00,VWS V13.01,2013-07-09 18:33:00,
2013-07-09 14:38:00,93.0,55.1,30.08,NE,49,0.0,0.0,28,0.00,,---,0.00,VWS V13.01,2013-07-09 18:38:00,
2013-07-09 14:43:00,93.6,53.6,30.08,NNW,342,0.0,0.0,26,0.00,,---,0.00,VWS V13.01,2013-07-09 18:43:00,
2013-07-09 14:48:00,93.4,53.4,30.08,North,4,0.0,0.0,26,0.00,,---,0.00,VWS V13.01,2013-07-09 18:48:00,
2013-07-09 14:53:00,91.9,53.2,30.08,North,4,0.0,0.0,27,0.00,,---,0.00,VWS V13.01,2013-07-09 18:53:00,
2013-07-09 14:58:00,90.5,53.9,30.08,North,2,0.0,0.0,29,0.00,,---,0.00,VWS V13.01,2013-07-09 18:58:00,
2013-07-09 15:03:00,90.7,55.9,30.08,North,3,0.0,0.0,31,0.00,,---,0.00,VWS V13.01,2013-07-09 19:03:00,
2013-07-09 15:08:00,91.6,55.8,30.08,North,350,0.0,0.0,30,0.00,,---,0.00,VWS V13.01,2013-07-09 19:08:00,
2013-07-09 15:13:00,93.0,55.1,30.08,NNE,20,0.0,2.7,28,0.00,,---,0.00,VWS V13.01,2013-07-09 19:13:00,
2013-07-09 15:18:00,93.6,55.6,30.08,SSE,158,0.0,0.0,28,0.00,,---,0.00,VWS V13.01,2013-07-09 19:18:00,
2013-07-09 15:23:00,93.9,54.9,30.05,NNE,13,0.0,0.0,27,0.00,,---,0.00,VWS V13.01,2013-07-09 19:23:00,
2013-07-09 15:28:00,93.6,54.6,30.05,North,357,3.1,3.1,27,0.00,,---,0.00,VWS V13.01,2013-07-09 19:28:00,
2013-07-09 15:33:00,93.7,55.7,30.05,North,357,0.0,0.0,28,0.00,,---,0.00,VWS V13.01,2013-07-09 19:33:00,
2013-07-09 15:38:00,94.3,55.2,30.08,NNE,31,0.0,0.0,27,0.00,,---,0.00,VWS V13.01,2013-07-09 19:38:00,
2013-07-09 15:43:00,93.7,53.7,30.08,NNE,14,0.0,0.0,26,0.00,,---,0.00,VWS V13.01,2013-07-09 19:43:00,
2013-07-09 15:48:00,92.8,54.0,30.08,North,10,0.0,0.0,27,0.00,,---,0.00,VWS V13.01,2013-07-09 19:48:00,
2013-07-09 15:53:00,92.5,53.7,30.08,SSW,205,0.0,0.0,27,0.00,,---,0.00,VWS V13.01,2013-07-09 19:53:00,
2013-07-09 15:58:00,92.8,54.0,30.08,NNE,18,0.0,0.0,27,0.00,,---,0.00,VWS V13.01,2013-07-09 19:58:00,
2013-07-09 16:03:00,91.6,52.9,30.08,North,0,0.0,0.0,27,0.00,,---,0.00,VWS V13.01,2013-07-09 20:03:00,
2013-07-09 16:08:00,91.6,53.9,30.08,NNE,24,0.0,0.0,28,0.00,,---,0.00,VWS V13.01,2013-07-09 20:08:00,
2013-07-09 16:13:00,91.8,54.0,30.08,NNW,335,0.0,0.0,28,0.00,,---,0.00,VWS V13.01,2013-07-09 20:13:00,
2013-07-09 16:18:00,91.6,52.9,30.08,NNE,20,0.0,0.0,27,0.00,,---,0.00,VWS V13.01,2013-07-09 20:18:00,
2013-07-09 16:23:00,90.0,54.4,30.08,NNE,20,0.0,0.0,30,0.00,,---,0.00,VWS V13.01,2013-07-09 20:23:00,
2013-07-09 16:28:00,89.8,53.3,30.08,NNE,20,0.0,0.0,29,0.00,,---,0.00,VWS V13.01,2013-07-09 20:28:00,
2013-07-09 16:33:00,89.1,53.6,30.08,NE,47,0.0,0.0,30,0.00,,---,0.00,VWS V13.01,2013-07-09 20:33:00,
2013-07-09 16:38:00,88.2,54.6,30.05,NE,47,0.0,0.0,32,0.00,,---,0.00,VWS V13.01,2013-07-09 20:38:00,
2013-07-09 16:43:00,87.8,55.2,30.05,NE,47,0.0,0.0,33,0.00,,---,0.00,VWS V13.01,2013-07-09 20:43:00,
2013-07-09 16:48:00,86.9,58.3,30.05,NE,47,0.0,0.0,38,0.00,,---,0.00,VWS V13.01,2013-07-09 20:48:00,
2013-07-09 16:53:00,86.9,58.3,30.05,NE,47,0.0,0.0,38,0.00,,---,0.00,VWS V13.01,2013-07-09 20:53:00,
2013-07-09 16:58:00,86.4,59.9,30.05,NE,47,0.0,0.0,41,0.00,,---,0.00,VWS V13.01,2013-07-09 20:58:00,
2013-07-09 17:03:00,86.5,59.4,30.05,NE,47,0.0,0.0,40,0.00,,---,0.00,VWS V13.01,2013-07-09 21:03:00,
2013-07-09 17:08:00,86.5,59.4,30.05,NE,47,0.0,0.0,40,0.00,,---,0.00,VWS V13.01,2013-07-09 21:08:00,
2013-07-09 17:13:00,87.1,59.8,30.05,North,1,0.0,0.0,40,0.00,,---,0.00,VWS V13.01,2013-07-09 21:13:00,
2013-07-09 17:18:00,89.1,57.1,30.05,North,353,0.0,0.0,34,0.00,,---,0.00,VWS V13.01,2013-07-09 21:18:00,
2013-07-09 17:23:00,90.0,57.0,30.05,North,353,0.0,0.0,33,0.00,,---,0.00,VWS V13.01,2013-07-09 21:23:00,
2013-07-09 17:28:00,90.7,55.9,30.05,North,353,0.0,0.0,31,0.00,,---,0.00,VWS V13.01,2013-07-09 21:28:00,
2013-07-09 17:33:00,91.0,55.3,30.05,North,353,0.0,0.0,30,0.00,,---,0.00,VWS V13.01,2013-07-09 21:33:00,
2013-07-09 17:38:00,91.6,53.9,30.05,North,357,0.0,0.0,28,0.00,,---,0.00,VWS V13.01,2013-07-09 21:38:00,
2013-07-09 17:43:00,91.6,53.9,30.05,East,97,0.0,0.0,28,0.00,,---,0.00,VWS V13.01,2013-07-09 21:43:00,
2013-07-09 17:48:00,90.9,54.2,30.05,NE,34,0.0,0.0,29,0.00,,---,0.00,VWS V13.01,2013-07-09 21:48:00,
2013-07-09 17:53:00,90.9,54.2,30.05,NE,34,0.0,0.0,29,0.00,,---,0.00,VWS V13.01,2013-07-09 21:53:00,
2013-07-09 17:58:00,90.1,53.6,30.05,NE,34,0.0,0.0,29,0.00,,---,0.00,VWS V13.01,2013-07-09 21:58:00,
2013-07-09 18:03:00,90.1,54.5,30.05,SE,142,0.0,0.0,30,0.00,,---,0.00,VWS V13.01,2013-07-09 22:03:00,
2013-07-09 18:08:00,90.1,53.6,30.05,NNW,333,0.0,0.0,29,0.00,,---,0.00,VWS V13.01,2013-07-09 22:08:00,
2013-07-09 18:13:00,90.3,52.8,30.05,NNW,335,0.0,0.0,28,0.00,,---,0.00,VWS V13.01,2013-07-09 22:13:00,
2013-07-09 18:18:00,90.1,52.7,30.05,NNW,335,0.0,0.0,28,0.00,,---,0.00,VWS V13.01,2013-07-09 22:18:00,
2013-07-09 18:23:00,90.0,52.5,30.05,NNW,337,0.0,0.0,28,0.00,,---,0.00,VWS V13.01,2013-07-09 22:23:00,
2013-07-09 18:28:00,89.4,53.0,30.05,SSW,207,0.0,0.0,29,0.00,,---,0.00,VWS V13.01,2013-07-09 22:28:00,
2013-07-09 18:33:00,88.7,53.3,30.05,SSW,207,0.0,0.0,30,0.00,,---,0.00,VWS V13.01,2013-07-09 22:33:00,
2013-07-09 18:38:00,88.0,53.6,30.05,SSW,207,0.0,0.0,31,0.00,,---,0.00,VWS V13.01,2013-07-09 22:38:00,
2013-07-09 18:43:00,87.4,54.0,30.05,ENE,61,0.0,0.0,32,0.00,,---,0.00,VWS V13.01,2013-07-09 22:43:00,
2013-07-09 18:48:00,87.1,54.5,30.05,ENE,61,0.0,0.0,33,0.00,,---,0.00,VWS V13.01,2013-07-09 22:48:00,
2013-07-09 18:53:00,87.1,54.5,30.05,ENE,61,0.0,0.0,33,0.00,,---,0.00,VWS V13.01,2013-07-09 22:53:00,
2013-07-09 18:58:00,86.0,52.7,30.05,ENE,61,0.0,0.0,32,0.00,,---,0.00,VWS V13.01,2013-07-09 22:58:00,
2013-07-09 19:03:00,85.8,53.4,30.05,ENE,61,0.0,0.0,33,0.00,,---,0.00,VWS V13.01,2013-07-09 23:03:00,
2013-07-09 19:08:00,85.5,53.9,30.05,ENE,61,0.0,0.0,34,0.00,,---,0.00,VWS V13.01,2013-07-09 23:08:00,
2013-07-09 19:13:00,84.9,54.2,30.05,ENE,61,0.0,0.0,35,0.00,,---,0.00,VWS V13.01,2013-07-09 23:13:00,
2013-07-09 19:18:00,84.7,54.9,30.05,ENE,61,0.0,0.0,36,0.00,,---,0.00,VWS V13.01,2013-07-09 23:18:00,
2013-07-09 19:23:00,84.2,55.1,30.05,ENE,61,0.0,0.0,37,0.00,,---,0.00,VWS V13.01,2013-07-09 23:23:00,
2013-07-09 19:28:00,84.2,55.9,30.05,ENE,61,0.0,0.0,38,0.00,,---,0.00,VWS V13.01,2013-07-09 23:28:00,
2013-07-09 19:33:00,84.0,56.4,30.05,ENE,61,0.0,0.0,39,0.00,,---,0.00,VWS V13.01,2013-07-09 23:33:00,
2013-07-09 19:38:00,83.5,55.9,30.05,ENE,61,0.0,0.0,39,0.00,,---,0.00,VWS V13.01,2013-07-09 23:38:00,
2013-07-09 19:43:00,83.3,56.5,30.05,ENE,61,0.0,0.0,40,0.00,,---,0.00,VWS V13.01,2013-07-09 23:43:00,
2013-07-09 19:48:00,83.3,56.5,30.05,ENE,61,0.0,0.0,40,0.00,,---,0.00,VWS V13.01,2013-07-09 23:48:00,
2013-07-09 19:53:00,82.9,57.5,30.05,ENE,61,0.0,0.0,42,0.00,,---,0.00,VWS V13.01,2013-07-09 23:53:00,
2013-07-09 19:58:00,82.6,57.2,30.05,ENE,61,0.0,0.0,42,0.00,,---,0.00,VWS V13.01,2013-07-09 23:58:00,
2013-07-09 20:03:00,82.6,57.8,30.05,ENE,61,0.0,0.0,43,0.00,,---,0.00,VWS V13.01,2013-07-10 00:03:00,
2013-07-09 20:08:00,82.4,58.3,30.05,ENE,61,0.0,0.0,44,0.00,,---,0.00,VWS V13.01,2013-07-10 00:08:00,
2013-07-09 20:13:00,82.2,59.4,30.05,ENE,62,0.0,0.0,46,0.00,,---,0.00,VWS V13.01,2013-07-10 00:13:00,
2013-07-09 20:18:00,82.2,59.4,30.05,ENE,62,0.0,0.0,46,0.00,,---,0.00,VWS V13.01,2013-07-10 00:18:00,
2013-07-09 20:23:00,82.0,60.4,30.05,ENE,61,0.0,0.0,48,0.00,,---,0.00,VWS V13.01,2013-07-10 00:23:00,
2013-07-09 20:28:00,82.0,61.0,30.05,NNE,27,0.0,0.0,49,0.00,,---,0.00,VWS V13.01,2013-07-10 00:28:00,
2013-07-09 20:33:00,82.0,62.1,30.05,NNE,27,0.0,0.0,51,0.00,,---,0.00,VWS V13.01,2013-07-10 00:33:00,
2013-07-09 20:38:00,81.9,62.5,30.05,North,11,0.0,0.0,52,0.00,,---,0.00,VWS V13.01,2013-07-10 00:38:00,
2013-07-09 20:43:00,81.9,63.1,30.05,North,11,0.0,0.0,53,0.00,,---,0.00,VWS V13.01,2013-07-10 00:43:00,
2013-07-09 20:48:00,81.7,62.9,30.05,North,11,0.0,0.0,53,0.00,,---,0.00,VWS V13.01,2013-07-10 00:48:00,
2013-07-09 20:53:00,81.7,62.9,30.05,North,11,0.0,0.0,53,0.00,,---,0.00,VWS V13.01,2013-07-10 00:53:00,
2013-07-09 20:58:00,81.5,62.7,30.05,North,10,0.0,0.0,53,0.00,,---,0.00,VWS V13.01,2013-07-10 00:58:00,
2013-07-09 21:03:00,81.5,62.7,30.05,North,353,0.0,0.0,53,0.00,,---,0.00,VWS V13.01,2013-07-10 01:03:00,
2013-07-09 21:08:00,81.1,60.2,30.05,North,353,0.0,0.0,49,0.00,,---,0.00,VWS V13.01,2013-07-10 01:08:00,
2013-07-09 21:13:00,80.8,58.7,30.05,North,353,0.0,0.0,47,0.00,,---,0.00,VWS V13.01,2013-07-10 01:13:00,
2013-07-09 21:19:00,80.1,57.4,30.05,NNE,25,0.0,0.0,46,0.00,,---,0.00,VWS V13.01,2013-07-10 01:19:00,
2013-07-09 21:24:00,79.7,57.1,30.05,North,353,0.0,0.0,46,0.00,,---,0.00,VWS V13.01,2013-07-10 01:24:00,
2013-07-09 21:29:00,79.7,57.1,30.08,North,350,0.0,0.0,46,0.00,,---,0.00,VWS V13.01,2013-07-10 01:29:00,
2013-07-09 21:34:00,79.2,56.6,30.08,North,357,0.0,2.2,46,0.00,,---,0.00,VWS V13.01,2013-07-10 01:34:00,
2013-07-09 21:39:00,78.8,56.9,30.08,North,357,0.0,0.0,47,0.00,,---,0.00,VWS V13.01,2013-07-10 01:39:00,
2013-07-09 21:44:00,78.6,56.7,30.08,North,6,0.0,0.0,47,0.00,,---,0.00,VWS V13.01,2013-07-10 01:44:00,
2013-07-09 21:49:00,78.6,56.7,30.08,North,6,0.0,0.0,47,0.00,,---,0.00,VWS V13.01,2013-07-10 01:49:00,
2013-07-09 21:54:00,78.3,57.5,30.08,North,7,0.0,0.0,49,0.00,,---,0.00,VWS V13.01,2013-07-10 01:54:00,
2013-07-09 21:59:00,77.9,57.8,30.08,North,7,0.0,0.0,50,0.00,,---,0.00,VWS V13.01,2013-07-10 01:59:00,
2013-07-09 22:04:00,77.9,57.8,30.08,North,7,0.0,0.0,50,0.00,,---,0.00,VWS V13.01,2013-07-10 02:04:00,
2013-07-09 22:09:00,77.5,57.5,30.08,North,7,0.0,0.0,50,0.00,,---,0.00,VWS V13.01,2013-07-10 02:09:00,
2013-07-09 22:14:00,77.4,57.3,30.08,North,7,0.0,0.0,50,0.00,,---,0.00,VWS V13.01,2013-07-10 02:14:00,
2013-07-09 22:19:00,77.4,57.8,30.08,North,7,0.0,0.0,51,0.00,,---,0.00,VWS V13.01,2013-07-10 02:19:00,
2013-07-09 22:24:00,77.2,58.2,30.08,North,7,0.0,0.0,52,0.00,,---,0.00,VWS V13.01,2013-07-10 02:24:00,
2013-07-09 22:29:00,77.2,58.2,30.08,North,7,0.0,0.0,52,0.00,,---,0.00,VWS V13.01,2013-07-10 02:29:00,
2013-07-09 22:34:00,77.0,58.6,30.08,North,7,0.0,0.0,53,0.00,,---,0.00,VWS V13.01,2013-07-10 02:34:00,
2013-07-09 22:39:00,77.0,59.1,30.08,North,7,0.0,0.0,54,0.00,,---,0.00,VWS V13.01,2013-07-10 02:39:00,
2013-07-09 22:44:00,76.8,59.5,30.08,North,7,0.0,0.0,55,0.00,,---,0.00,VWS V13.01,2013-07-10 02:44:00,
2013-07-09 22:49:00,76.8,60.0,30.08,North,7,0.0,0.0,56,0.00,,---,0.00,VWS V13.01,2013-07-10 02:49:00,
2013-07-09 22:54:00,76.3,60.0,30.05,North,7,0.0,0.0,57,0.00,,---,0.00,VWS V13.01,2013-07-10 02:54:00,
2013-07-09 22:59:00,76.1,60.8,30.05,North,7,0.0,0.0,59,0.00,,---,0.00,VWS V13.01,2013-07-10 02:59:00,
2013-07-09 23:04:00,76.1,60.8,30.05,North,7,0.0,0.0,59,0.00,,---,0.00,VWS V13.01,2013-07-10 03:04:00,
2013-07-09 23:09:00,76.1,61.2,30.05,North,7,0.0,0.0,60,0.00,,---,0.00,VWS V13.01,2013-07-10 03:09:00,
2013-07-09 23:14:00,76.1,61.2,30.08,North,7,0.0,0.0,60,0.00,,---,0.00,VWS V13.01,2013-07-10 03:14:00,
2013-07-09 23:19:00,75.9,61.0,30.08,North,7,0.0,0.0,60,0.00,,---,0.00,VWS V13.01,2013-07-10 03:19:00,
2013-07-09 23:24:00,75.9,61.5,30.08,North,7,0.0,0.0,61,0.00,,---,0.00,VWS V13.01,2013-07-10 03:24:00,
2013-07-09 23:29:00,75.9,61.5,30.08,North,7,0.0,0.0,61,0.00,,---,0.00,VWS V13.01,2013-07-10 03:29:00,
2013-07-09 23:34:00,75.9,61.5,30.08,North,7,0.0,0.0,61,0.00,,---,0.00,VWS V13.01,2013-07-10 03:34:00,
2013-07-09 23:39:00,75.7,61.3,30.08,North,7,0.0,0.0,61,0.00,,---,0.00,VWS V13.01,2013-07-10 03:39:00,
2013-07-09 23:44:00,75.7,61.8,30.08,North,7,0.0,0.0,62,0.00,,---,0.00,VWS V13.01,2013-07-10 03:44:00,
2013-07-09 23:49:00,75.6,61.6,30.08,North,7,0.0,0.0,62,0.00,,---,0.00,VWS V13.01,2013-07-10 03:49:00,
2013-07-09 23:54:00,75.4,61.5,30.08,North,7,0.0,0.0,62,0.00,,---,0.00,VWS V13.01,2013-07-10 03:54:00,
2013-07-09 23:59:00,75.6,62.1,30.08,North,7,0.0,0.0,63,0.00,,---,0.00,VWS V13.01,2013-07-10 03:59:00,